Regional Weather Roundup
Issued by NWS Green Bay, WI

Home | Current Version | Previous Version | Text Only | Print | Product List | Glossary On
Versions: 1 2 3 4 5 6 7 8 9 10 11 12 13 14 15 16 17 18 19 20 21 22 23 24 25 26 27 28 29 30 31 32 33 34 35 36 37 38 39 40 41 42 43 44 45 46 47 48 49 50
000
ASUS43 KGRB 152159
RWRGRB

NORTH-CENTRAL AND NORTHEAST WISCONSIN REGIONAL WEATHER ROUNDUP
NATIONAL WEATHER SERVICE GREEN BAY WI
500 PM CDT MON SEP 15 2014

WIZ005-009-010>012-018-019-152300-
NORTH CENTRAL WISCONSIN

CITY           SKY/WX    TMP DP  RH WIND       PRES   REMARKS
IRONWOOD       CLOUDY    54  37  54 W13       30.12S
MANITOWISH WTR NOT AVBL
ARBOR VITAE    MOSUNNY   57  37  46 NW13G18   30.13R
EAGLE RIVER    NOT AVBL
LAND O LAKES   NOT AVBL
RHINELANDER    MOSUNNY   58  37  45 NW12      30.12S
PHILLIPS       PTSUNNY   56  36  46 NW9       30.13S
ANTIGO         NOT AVBL
TOMAHAWK       NOT AVBL
MERRILL        NOT AVBL
$$

WIZ013-073-152300-
NORTHEAST WISCONSIN

CITY           SKY/WX    TMP DP  RH WIND       PRES   REMARKS
IRON MOUNTAIN  PTSUNNY   61  41  47 N8        30.07S
MARINETTE      CLOUDY    59  45  58 NW6       30.08R
$$

WIZ017-030-035>037-045-152300-
CENTRAL WISCONSIN

CITY           SKY/WX    TMP DP  RH WIND       PRES   REMARKS
MEDFORD        NOT AVBL
WAUSAU         CLOUDY    59  41  51 NW8       30.10S
MOSINEE        MOSUNNY   59  43  55 NW9       30.12F
MARSHFIELD     MOSUNNY   59  40  49 N14       30.13S
WISC RAPIDS    LGT RAIN  59  47  64 NW7       30.14R
STEVENS POINT  NOT AVBL
WAUPACA        NOT AVBL
SHAWANO        CLOUDY    62  43  51 CALM      30.10R
CLINTONVILLE   MOSUNNY   61  39  44 W8        30.10S
$$

WIZ038-039-048-051-152300-
FOX VALLEY

CITY           SKY/WX    TMP DP  RH WIND       PRES   REMARKS
NWS GREEN BAY  MOSUNNY   61  49  64 W6        30.10F
APPLETON       MOSUNNY   75  46  35 W6        30.12S
OSHKOSH        PTSUNNY   58  49  72 NW8       30.11S
FOND DU LAC    CLOUDY    56  49  77 W8        30.12S
$$

WIZ022-050-052-152300-
EAST CENTRAL WISCONSIN

CITY           SKY/WX    TMP DP  RH WIND       PRES   REMARKS
STURGEON BAY   PTSUNNY   59  45  58 W8        30.10R
MANITOWOC      NOT AVBL
SHEBOYGAN      CLOUDY    55  50  83 NW7       30.12S
$$

LMZ563-521-522-541>543-152300-
LAKESHORE

STATION/POSITION TIME  TEMP    WIND        PRES    VSBY  WAVE
                       AIR SEA DIR/SP/G                  HT/PER
                 (UTC) (F)     (DEG/KT/KT) (MB)    (MI)  (FT/S)
SHEBOYGAN LKSHOR 2100   53 48   CALM  /  2 1020.2F
KEWAUNEE LKSHORE 2100   58     280/  6/  9 1018.2S
TWO RIVERS CG    2100   52 59              1019.9   3 1/2  1
NORTHPORT PIER   2100   60     150/  3/  8 1018.6R
N MID LAKE BUOY  2100   56 60  240/ 10/ 10 1018.8F         1/ 5
S GREEN BAY BUOY 2100   60     VRB  6/  8  1019.7F
STURGEON BAY CG  2100   61 55  330/  4     1022.6      6   2
CHAMBERS ISLAND  2100   60     200/  4/  8 1018.6F
MENOMINEE LKSHOR 2100   58      30/  5/  5 1019.0S
$$



USA.gov is the U.S. government's official web portal to all federal, state and local government web resources and services.